When you browse on this site, cookies collect data to enhance your experience and personalize the content and advertising you see.
Visit our Privacy Policy to learn more. By continuing to use the site, you agree to this use of cookies and data.
  • In Netherlands
  • List of Countries
  • For 7 days
  • Water Temperature
  • Satellite Maps
  • Weather Map
  • Weather Widgets
  • user-avatar
    Login

    Hourly Weather Belém

    Today, 27 May, Monday

    Time Temperature Precipitation Wind Pressure Humidity
    00:00 +25°C° 0.4 mm 1 mps 759 mmHg 98%
    01:00 +25°C° 0 mm 1 mps 758 mmHg 98%
    02:00 +25°C° 0 mm 1 mps 758 mmHg 98%
    03:00 +25°C° 0 mm 1 mps 758 mmHg 98%
    04:00 +25°C° 0 mm 1 mps 758 mmHg 98%
    05:00 +25°C° 0 mm 1 mps 758 mmHg 99%
    06:00 +25°C° 0 mm 1 mps 758 mmHg 99%
    07:00 +26°C° 0.2 mm 1 mps 758 mmHg 94%
    08:00 +27°C° 0.2 mm 1 mps 758 mmHg 89%
    09:00 +29°C° 0.2 mm 1 mps 759 mmHg 84%
    10:00 +30°C° 0.6 mm 2 mps 758 mmHg 77%
    11:00 +32°C° 0.6 mm 2 mps 758 mmHg 70%
    12:00 +34°C° 0.6 mm 2 mps 758 mmHg 62%
    13:00 +34°C° 0.5 mm 2 mps 757 mmHg 65%
    14:00 +34°C° 0.5 mm 2 mps 756 mmHg 69%
    15:00 +34°C° 0.5 mm 2 mps 756 mmHg 72%
    16:00 +31°C° 0.4 mm 2 mps 756 mmHg 79%
    17:00 +29°C° 0.4 mm 2 mps 756 mmHg 87%
    18:00 +27°C° 0.4 mm 2 mps 756 mmHg 94%
    19:00 +27°C° 0.8 mm 2 mps 757 mmHg 95%
    20:00 +27°C° 0.8 mm 2 mps 757 mmHg 96%
    21:00 +26°C° 0.8 mm 2 mps 758 mmHg 97%
    22:00 +26°C° 0 mm 2 mps 758 mmHg 97%
    23:00 +26°C° 0 mm 2 mps 758 mmHg 96%

    Tomorrow, 28 May, Tuesday

    Time Temperature Precipitation Wind Pressure Humidity
    00:00 +26°C° 0 mm 2 mps 758 mmHg 96%
    01:00 +26°C° 0 mm 2 mps 758 mmHg 96%
    02:00 +25°C° 0 mm 2 mps 757 mmHg 96%
    03:00 +25°C° 0 mm 2 mps 757 mmHg 96%
    04:00 +25°C° 0 mm 2 mps 757 mmHg 96%
    05:00 +25°C° 0 mm 2 mps 757 mmHg 96%
    06:00 +25°C° 0 mm 2 mps 757 mmHg 96%
    07:00 +26°C° 0 mm 2 mps 757 mmHg 90%
    08:00 +28°C° 0 mm 2 mps 758 mmHg 83%
    09:00 +30°C° 0 mm 3 mps 758 mmHg 76%
    10:00 +31°C° 0 mm 3 mps 758 mmHg 68%
    11:00 +34°C° 0 mm 3 mps 758 mmHg 61%
    12:00 +35°C° 0 mm 2 mps 758 mmHg 54%
    13:00 +34°C° 0.8 mm 2 mps 757 mmHg 64%
    14:00 +32°C° 0.8 mm 2 mps 756 mmHg 73%
    15:00 +31°C° 0.8 mm 2 mps 755 mmHg 83%
    16:00 +30°C° 1.8 mm 2 mps 756 mmHg 87%
    17:00 +29°C° 1.8 mm 2 mps 756 mmHg 91%
    18:00 +28°C° 1.8 mm 2 mps 756 mmHg 96%
    19:00 +27°C° 0.4 mm 2 mps 757 mmHg 96%
    20:00 +27°C° 0.4 mm 2 mps 757 mmHg 97%
    21:00 +27°C° 0.4 mm 1 mps 758 mmHg 97%
    22:00 +26°C° 0 mm 2 mps 758 mmHg 97%
    23:00 +26°C° 0 mm 2 mps 758 mmHg 97%

    Day after tomorrow, 29 May, Wednesday

    Time Temperature Precipitation Wind Pressure Humidity
    00:00 +26°C° 0 mm 2 mps 758 mmHg 97%
    01:00 +26°C° 0 mm 2 mps 757 mmHg 97%
    02:00 +26°C° 0 mm 2 mps 757 mmHg 97%
    03:00 +25°C° 0 mm 2 mps 756 mmHg 97%
    04:00 +25°C° 0 mm 2 mps 757 mmHg 97%
    05:00 +25°C° 0 mm 2 mps 757 mmHg 98%
    06:00 +25°C° 0 mm 2 mps 757 mmHg 98%
    07:00 +26°C° 0 mm 2 mps 757 mmHg 91%
    08:00 +28°C° 0 mm 2 mps 758 mmHg 85%
    09:00 +29°C° 0 mm 2 mps 758 mmHg 78%
    10:00 +31°C° 0 mm 2 mps 758 mmHg 71%
    11:00 +34°C° 0 mm 2 mps 758 mmHg 63%
    12:00 +35°C° 0 mm 2 mps 757 mmHg 56%
    13:00 +34°C° 0.8 mm 2 mps 757 mmHg 66%
    14:00 +32°C° 0.8 mm 2 mps 756 mmHg 77%
    15:00 +31°C° 0.8 mm 2 mps 755 mmHg 88%
    16:00 +29°C° 1.7 mm 2 mps 756 mmHg 91%
    17:00 +28°C° 1.7 mm 2 mps 756 mmHg 93%
    18:00 +27°C° 1.7 mm 2 mps 756 mmHg 96%
    19:00 +27°C° 1.4 mm 2 mps 756 mmHg 97%
    20:00 +26°C° 1.4 mm 2 mps 757 mmHg 97%
    21:00 +26°C° 1.4 mm 1 mps 758 mmHg 98%
    22:00 +26°C° 0.4 mm 1 mps 758 mmHg 98%
    23:00 +26°C° 0.4 mm 1 mps 758 mmHg 98%

    30 May, Thursday

    Time Temperature Precipitation Wind Pressure Humidity
    00:00 +25°C° 0.4 mm 1 mps 758 mmHg 98%
    01:00 +25°C° 0.1 mm 1 mps 757 mmHg 98%
    02:00 +25°C° 0.1 mm 1 mps 756 mmHg 98%
    03:00 +25°C° 0.1 mm 1 mps 756 mmHg 98%
    04:00 +25°C° 0 mm 1 mps 756 mmHg 99%
    05:00 +25°C° 0 mm 1 mps 756 mmHg 99%
    06:00 +25°C° 0 mm 1 mps 757 mmHg 99%
    07:00 +26°C° 0.3 mm 1 mps 757 mmHg 97%
    08:00 +27°C° 0.3 mm 1 mps 758 mmHg 96%
    09:00 +28°C° 0.3 mm 2 mps 758 mmHg 94%
    10:00 +29°C° 0.5 mm 2 mps 758 mmHg 89%
    11:00 +30°C° 0.5 mm 2 mps 758 mmHg 84%
    12:00 +31°C° 0.5 mm 2 mps 757 mmHg 79%
    13:00 +30°C° 0.9 mm 2 mps 757 mmHg 83%
    14:00 +30°C° 0.9 mm 2 mps 756 mmHg 87%
    15:00 +30°C° 0.9 mm 2 mps 755 mmHg 91%
    16:00 +29°C° 1.9 mm 1 mps 755 mmHg 93%
    17:00 +28°C° 1.9 mm 1 mps 755 mmHg 95%
    18:00 +27°C° 1.9 mm 1 mps 756 mmHg 97%
    19:00 +27°C° 0.6 mm 1 mps 756 mmHg 97%
    20:00 +26°C° 0.6 mm 1 mps 757 mmHg 98%
    21:00 +26°C° 0.6 mm 1 mps 757 mmHg 98%
    22:00 +26°C° 0 mm 1 mps 757 mmHg 98%
    23:00 +26°C° 0 mm 1 mps 757 mmHg 98%

    31 May, Friday

    Time Temperature Precipitation Wind Pressure Humidity
    00:00 +25°C° 0 mm 1 mps 757 mmHg 98%
    01:00 +25°C° 0 mm 1 mps 757 mmHg 98%
    02:00 +25°C° 0 mm 1 mps 756 mmHg 99%
    03:00 +25°C° 0 mm 1 mps 756 mmHg 99%
    04:00 +25°C° 0.3 mm 1 mps 756 mmHg 99%
    05:00 +25°C° 0.3 mm 1 mps 756 mmHg 99%
    06:00 +25°C° 0.3 mm 1 mps 757 mmHg 99%
    07:00 +26°C° 0.5 mm 1 mps 757 mmHg 98%
    08:00 +27°C° 0.5 mm 1 mps 758 mmHg 97%
    09:00 +28°C° 0.5 mm 1 mps 758 mmHg 96%
    10:00 +29°C° 1.2 mm 2 mps 758 mmHg 91%
    11:00 +30°C° 1.2 mm 2 mps 758 mmHg 86%
    12:00 +31°C° 1.2 mm 2 mps 757 mmHg 81%
    13:00 +30°C° 2.7 mm 2 mps 757 mmHg 86%
    14:00 +30°C° 2.7 mm 2 mps 756 mmHg 90%
    15:00 +29°C° 2.7 mm 2 mps 755 mmHg 95%
    16:00 +28°C° 2.4 mm 2 mps 755 mmHg 95%
    17:00 +28°C° 2.4 mm 2 mps 755 mmHg 96%
    18:00 +27°C° 2.4 mm 2 mps 755 mmHg 97%
    19:00 +27°C° 0.5 mm 2 mps 756 mmHg 97%
    20:00 +26°C° 0.5 mm 2 mps 757 mmHg 97%
    21:00 +26°C° 0.5 mm 2 mps 757 mmHg 97%
    22:00 +26°C° 0 mm 2 mps 757 mmHg 97%
    23:00 +26°C° 0 mm 2 mps 757 mmHg 97%

    1 June, Saturday

    Time Temperature Precipitation Wind Pressure Humidity
    00:00 +25°C° 0 mm 2 mps 757 mmHg 98%
    01:00 +25°C° 0 mm 2 mps 757 mmHg 97%
    02:00 +25°C° 0 mm 2 mps 756 mmHg 97%
    03:00 +25°C° 0 mm 2 mps 756 mmHg 97%
    04:00 +25°C° 0 mm 2 mps 756 mmHg 97%
    05:00 +24°C° 0 mm 2 mps 756 mmHg 97%
    06:00 +24°C° 0 mm 1 mps 757 mmHg 97%
    07:00 +26°C° 0 mm 2 mps 757 mmHg 91%
    08:00 +27°C° 0 mm 2 mps 757 mmHg 85%
    09:00 +29°C° 0 mm 2 mps 758 mmHg 80%
    10:00 +31°C° 0 mm 2 mps 757 mmHg 69%
    11:00 +34°C° 0 mm 2 mps 757 mmHg 59%
    12:00 +35°C° 0 mm 2 mps 757 mmHg 48%
    13:00 +36°C° 0 mm 2 mps 756 mmHg 46%
    14:00 +36°C° 0 mm 2 mps 755 mmHg 44%
    15:00 +37°C° 0 mm 2 mps 755 mmHg 42%
    16:00 +35°C° 0 mm 2 mps 755 mmHg 51%
    17:00 +32°C° 0 mm 2 mps 755 mmHg 60%
    18:00 +30°C° 0 mm 2 mps 755 mmHg 70%
    19:00 +29°C° 0.2 mm 2 mps 756 mmHg 76%
    20:00 +28°C° 0.2 mm 2 mps 756 mmHg 82%
    21:00 +27°C° 0.2 mm 2 mps 757 mmHg 88%
    22:00 +26°C° 0 mm 2 mps 757 mmHg 89%
    23:00 +26°C° 0 mm 2 mps 757 mmHg 90%
    Show more